星链-31809 (STARLINK-31809 )

导读

STARLINK-31809是美国太空探索技术公司(SpaceX)星链(Starlink)卫星星座中的一颗卫星,于北京时间2024年5月13日8时发射入轨。星链项目旨在构建全球卫星互联网通信系统,这颗卫星加入后,进一步扩充了星链星座规模,助力其实现全球覆盖、提供高速互联网接入服务的目标。

基本信息
目录编号:
59743
目录名称:
STARLINK-31809
国际标识:
2024-090P
轨道中心:
EARTH
卫星名称:
星链-31809
卫星全名:
星链-31809 (STARLINK-31809 )
卫星状态:
在轨 (已飞行851 天)
发射日期:
2024-05-13 UTC
国别 :
美国 (US)
星等 :
--
该卫星已列入 空间交会检测服务 Space Conjunction Data Service (SCDS) ,当前飞行风险评估等级: 无高风险
轨道信息
数据来源 国际轨道数据 AOE轨道数据
星历时间 2026-09-11T12:59:54+0800
9小时前
查看轨道信息
2026-09-10T23:00:00+0800
23小时前
查看轨道信息
半长轴 6861.222km 6861.204km
偏心率 0.000103 0.0001244
轨道倾角 43.002° 42.999°
近地点辐角 299.664° 231.108°
升交点赤经 208.792° 212.083°
平近点角 60.411° 157.766°
近地点 482.378km 482.213km
远地点 483.792km 483.921km
周期 94.267分钟 94.267分钟
每日圈数 15.275683 15.275743
详细信息
固有亮度:
5
最大亮度:
1.5
卫星平台:
Starlink v2.0 mini
覆盖范围:
全球
运营商:
太空探索技术公司
运营商所在国:
美国
制造商(研发单位):
太空探索技术公司
制造商所在国:
美国
使用方式:
暂无
卫星简介
星链(Starlink)计划是由太空探索技术公司(SpaceX)提出的一个巨型低轨卫星互联网星座项目,计划在2019年至2024年间在太空搭建由约1.2万颗卫星组成的“星链”网络,其中1584颗将部署在地球上空550千米处的近地轨道,并从2020年开始工作。该卫星仍在工作。
2D轨道图
3D轨道图
轨道高度分析图
轨道倾角分析图
轨道综合分析图
查看轨道综合分析图
与全量物体交会距离演化趋势
与全量物体交会风险概率演化趋势